Weather History for Prairie Du Chien, WI

Change the Weather History Date:

Thursday, July 4, 2013

  Actual Average Record
Temperature  
Mean Temperature 70 °F -  
Max Temperature 83 °F 85 °F 100 °F (2012)
Min Temperature 58 °F 61 °F 44 °F (1967)
Cooling Degree Days 6    
Growing Degree Days 20 (Base 50)    
Moisture  
Dew Point 57 °F    
Average Humidity 64    
Maximum Humidity 94    
Minimum Humidity 36    
Precipitation  
Precipitation 0.00 in - - ()
Sea Level Pressure  
Sea Level Pressure 30.02 in    
Wind  
Wind Speed 4 mph (SE)    
Max Wind Speed 9 mph    
Max Gust Speed -    
Visibility 10 miles    
Events      
Averages and records for this station are not official NWS values.
T = Trace of Precipitation, MM = Missing Value Source: NWS Daily Summary

Daily Weather History Graph

Daily Weather History Graph

Search for Another Location

Airport:

Trip Planner

Search our weather history database for the weather conditions in past years. The results will help you decide how hot, cold, wet, or windy it might be!

Date:

Astronomy

Jul. 04, 2013 Rise Set
Actual Time 5:30 AM CDT 8:46 PM CDT
Civil Twilight 4:55 AM CDT 9:21 PM CDT
Nautical Twilight 4:10 AM CDT 10:06 PM CDT
Astronomical Twilight 3:15 AM CDT 11:01 PM CDT
Moon 2:50 AM CDT (7/4) 5:49 PM CDT (7/4)
Length of Visible Light 16h 25m
Length of Day
15h 15m
Waning Crescent, 11% of the Moon is Illuminated
Jul 4
Waning Crescent
Jul 8
New
Jul 15
First Quarter
Jul 22
Full
Jul 29
Last Quarter

Hourly Weather History & Observations

Time (CDT) Temp. Heat Index Dew Point Humidity Pressure Visibility Wind Dir Wind Speed Gust Speed Precip Events Conditions
12:15 AM 63.0 °F - 58.6 °F 86% 30.04 in 10.0 mi East 4.6 mph - N/A   Clear
12:35 AM 62.8 °F - 58.8 °F 87% 30.03 in 10.0 mi Calm Calm - N/A   Clear
12:55 AM 62.8 °F - 58.8 °F 87% 30.04 in 10.0 mi Calm Calm - N/A   Clear
1:15 AM 62.6 °F - 58.6 °F 87% 30.03 in 10.0 mi Calm Calm - N/A   Clear
1:35 AM 61.5 °F - 58.3 °F 89% 30.03 in 10.0 mi East 3.5 mph - N/A   Clear
1:55 AM 61.7 °F - 58.3 °F 89% 30.03 in 10.0 mi Calm Calm - N/A   Clear
2:15 AM 60.8 °F - 57.9 °F 90% 30.02 in 10.0 mi ESE 4.6 mph - N/A   Clear
2:35 AM 60.4 °F - 57.7 °F 91% 30.02 in 10.0 mi Calm Calm - N/A   Clear
2:55 AM 60.4 °F - 57.6 °F 90% 30.02 in 10.0 mi Calm Calm - N/A   Clear
3:15 AM 59.9 °F - 57.4 °F 91% 30.02 in 10.0 mi ESE 3.5 mph - N/A   Clear
3:35 AM 59.2 °F - 57.2 °F 93% 30.02 in 10.0 mi East 3.5 mph - N/A   Clear
3:55 AM 58.8 °F - 56.8 °F 93% 30.02 in 10.0 mi ESE 4.6 mph - N/A   Clear
4:15 AM 58.6 °F - 56.8 °F 94% 30.03 in 10.0 mi East 5.8 mph - N/A   Clear
4:35 AM 58.8 °F - 57.0 °F 94% 30.03 in 10.0 mi East 3.5 mph - N/A   Clear
4:55 AM 58.6 °F - 56.5 °F 93% 30.04 in 10.0 mi ESE 4.6 mph - N/A   Clear
5:15 AM 58.6 °F - 56.8 °F 94% 30.04 in 10.0 mi East 8.1 mph - N/A   Scattered Clouds
5:35 AM 58.6 °F - 56.3 °F 92% 30.04 in 10.0 mi ESE 3.5 mph - N/A   Mostly Cloudy
5:55 AM 59.0 °F - 56.3 °F 91% 30.05 in 10.0 mi East 4.6 mph - N/A   Scattered Clouds
6:15 AM 59.4 °F - 56.7 °F 91% 30.06 in 10.0 mi East 5.8 mph - N/A   Scattered Clouds
6:35 AM 60.1 °F - 57.0 °F 90% 30.06 in 10.0 mi East 5.8 mph - N/A   Overcast
6:55 AM 60.8 °F - 56.7 °F 86% 30.06 in 10.0 mi East 4.6 mph - N/A   Mostly Cloudy
7:15 AM 61.9 °F - 57.2 °F 85% 30.07 in 10.0 mi East 4.6 mph - N/A   Mostly Cloudy
7:35 AM 63.3 °F - 56.7 °F 79% 30.07 in 10.0 mi East 4.6 mph - N/A   Scattered Clouds
7:55 AM 64.6 °F - 56.5 °F 75% 30.06 in 10.0 mi East 4.6 mph - N/A   Scattered Clouds
8:15 AM 66.2 °F - 57.7 °F 74% 30.06 in 10.0 mi East 3.5 mph - N/A   Clear
8:35 AM 67.3 °F - 57.4 °F 70% 30.06 in 10.0 mi ESE 3.5 mph - N/A   Clear
8:55 AM 68.7 °F - 57.2 °F 67% 30.05 in 10.0 mi Calm Calm - N/A   Clear
9:15 AM 70.7 °F - 57.9 °F 64% 30.05 in 10.0 mi Calm Calm - N/A   Clear
9:35 AM 71.6 °F - 58.3 °F 63% 30.05 in 10.0 mi Calm Calm - N/A   Clear
9:55 AM 73.0 °F - 58.5 °F 60% 30.05 in 10.0 mi South 3.5 mph - N/A   Clear
10:15 AM 74.8 °F - 57.9 °F 55% 30.04 in 10.0 mi ESE 6.9 mph - N/A   Clear
10:35 AM 75.9 °F - 58.3 °F 54% 30.04 in 10.0 mi SSE 4.6 mph - N/A   Clear
10:55 AM 76.5 °F - 58.3 °F 53% 30.04 in 10.0 mi SE 4.6 mph - N/A   Clear
11:15 AM 77.2 °F - 58.1 °F 52% 30.04 in 10.0 mi South 5.8 mph - N/A   Clear
11:35 AM 78.4 °F - 59.7 °F 52% 30.04 in 10.0 mi SSW 5.8 mph - N/A   Clear
11:55 AM 79.2 °F - 58.5 °F 49% 30.04 in 10.0 mi SW 8.1 mph - N/A   Clear
12:15 PM 79.9 °F - 56.1 °F 44% 30.03 in 10.0 mi South 5.8 mph - N/A   Clear
12:35 PM 80.4 °F 80.7 °F 57.6 °F 45% 30.03 in 10.0 mi South 5.8 mph - N/A   Clear
12:55 PM 80.8 °F 80.8 °F 56.3 °F 43% 30.03 in 10.0 mi South 4.6 mph - N/A   Clear
1:15 PM 81.7 °F 81.1 °F 54.3 °F 39% 30.02 in 10.0 mi SSE 6.9 mph - N/A   Clear
1:35 PM 81.7 °F 81.0 °F 53.6 °F 38% 30.01 in 10.0 mi SE 6.9 mph - N/A   Clear
1:55 PM 82.2 °F 81.3 °F 53.6 °F 37% 30.01 in 10.0 mi SE 6.9 mph - N/A   Clear
2:15 PM 82.0 °F 81.2 °F 53.1 °F 37% 30.01 in 10.0 mi South 6.9 mph - N/A   Clear
2:35 PM 82.9 °F 81.9 °F 54.3 °F 37% 30.01 in 10.0 mi SSW 8.1 mph - N/A   Clear
2:55 PM 82.8 °F 81.6 °F 53.6 °F 36% 30.01 in 10.0 mi South 6.9 mph - N/A   Clear
3:15 PM 82.4 °F 81.6 °F 54.1 °F 38% 30.01 in 10.0 mi South 5.8 mph - N/A   Scattered Clouds
3:35 PM 83.5 °F 82.4 °F 54.9 °F 37% 30.00 in 10.0 mi South 5.8 mph - N/A   Scattered Clouds
3:55 PM 82.8 °F 82.0 °F 55.4 °F 39% 30.00 in 10.0 mi SE 6.9 mph - N/A   Clear
4:15 PM 83.5 °F 82.5 °F 55.6 °F 38% 30.00 in 10.0 mi ESE 6.9 mph - N/A   Clear
4:35 PM 83.5 °F 82.5 °F 55.2 °F 38% 30.00 in 10.0 mi South 6.9 mph - N/A   Scattered Clouds
4:55 PM 82.6 °F 81.6 °F 53.8 °F 37% 29.99 in 10.0 mi SE 9.2 mph - N/A   Scattered Clouds
5:15 PM 82.9 °F 81.9 °F 54.0 °F 37% 29.99 in 10.0 mi SSE 6.9 mph - N/A   Clear
5:35 PM 83.1 °F 82.2 °F 55.4 °F 38% 29.99 in 10.0 mi SE 5.8 mph - N/A   Clear
5:55 PM 81.5 °F 81.0 °F 54.9 °F 40% 29.99 in 10.0 mi SE 6.9 mph - N/A   Clear
6:15 PM 81.7 °F 81.3 °F 56.1 °F 41% 29.98 in 10.0 mi SE 4.6 mph - N/A   Clear
6:35 PM 81.7 °F 81.4 °F 56.3 °F 42% 29.98 in 10.0 mi SE 4.6 mph - N/A   Clear
6:55 PM 81.5 °F 81.4 °F 56.8 °F 43% 29.98 in 10.0 mi SE 4.6 mph - N/A   Clear
7:15 PM 81.0 °F 81.0 °F 56.8 °F 44% 29.97 in 10.0 mi SE 3.5 mph - N/A   Clear
7:35 PM 80.1 °F 80.6 °F 57.9 °F 47% 29.97 in 10.0 mi SE 3.5 mph - N/A   Clear
7:55 PM 79.0 °F - 59.4 °F 51% 29.97 in 10.0 mi ESE 4.6 mph - N/A   Clear
8:15 PM 77.7 °F - 59.9 °F 54% 29.98 in 10.0 mi SE 5.8 mph - N/A   Clear
8:35 PM 77.4 °F - 58.1 °F 51% 29.98 in 10.0 mi SE 4.6 mph - N/A   Clear
8:55 PM 75.0 °F - 59.0 °F 57% 29.98 in 10.0 mi ESE 3.5 mph - N/A   Clear
9:15 PM 72.9 °F - 60.1 °F 64% 29.98 in 10.0 mi East 3.5 mph - N/A   Clear
9:35 PM 72.1 °F - 60.1 °F 66% 29.98 in 10.0 mi East 4.6 mph - N/A   Clear
9:55 PM 72.3 °F - 59.9 °F 65% 29.99 in 10.0 mi Calm Calm - N/A   Clear
10:15 PM 71.2 °F - 59.7 °F 67% 29.99 in 10.0 mi ENE 4.6 mph - N/A   Clear
10:35 PM 69.1 °F - 60.3 °F 73% 29.99 in 10.0 mi ENE 4.6 mph - N/A   Clear
10:55 PM 68.9 °F - 59.9 °F 73% 30.00 in 10.0 mi East 4.6 mph - N/A   Clear
11:15 PM 67.5 °F - 60.1 °F 77% 30.00 in 10.0 mi Calm Calm - N/A   Clear
11:35 PM 66.9 °F - 60.1 °F 79% 30.01 in 10.0 mi Calm Calm - N/A   Clear
11:55 PM 66.2 °F - 59.7 °F 80% 30.01 in 10.0 mi Calm Calm - N/A   Clear